Location: Leiter
(44.7178°N, 106.2687°W)
Time: 23:16:40
(UTC+00:00)

CUBESAT XI-V - Pass Details

Date: 05 July 2022
Orbit: 667 x 690 km, 98.1° (Epoch: 07 August)

Event Time Altitude Azimuth Distance (km) Brightness Sun altitude
Exits shadow 08:38:33 30° 154° (SSE) 1,190 ? -19.5°
Maximum altitude 08:40:46 75° 75° (ENE) 700 ? -19.4°
Drops below altitude 10° 08:45:22 10° 350° (N) 2,106 ? -19.1°
Sets 08:47:36 0° 349° (N) 3,023 ? -18.9°
